Windom, MN

6:50 PM CST on January 17, 2018 (GMT -0600)
Windom Municipal

Weather History for KMWM - November, 2014

Change the Weather History Date:

Thursday, November 6, 2014

  Actual Average Record
Temperature  
Mean Temperature 36 °F -  
Max Temperature 44 °F 45 °F 73 °F (2004)
Min Temperature 28 °F 27 °F 3 °F (1959)
Degree Days  
Heating Degree Days 29    
Moisture  
Dew Point 29 °F    
Average Humidity 82    
Maximum Humidity 93    
Minimum Humidity 57    
Precipitation  
Precipitation 0.00 in - - ()
Sea Level Pressure  
Sea Level Pressure 30.25 in    
Wind  
Wind Speed 16 mph (NW)    
Max Wind Speed 25 mph    
Max Gust Speed 36 mph    
Visibility 10 miles    
Events Rain , Snow    
Averages and records for this station are not official NWS values.
T = Trace of Precipitation, MM = Missing Value Source: NWS Daily Summary

Daily Weather History Graph

Daily Weather History Graph

Search for Another Location

Airport or City:

Trip Planner

Search our weather history database for the weather conditions in past years. The results will help you decide how hot, cold, wet, or windy it might be!

Date:

Astronomy

Nov. 06, 2014 Rise Set
Actual Time 7:03 AM CST 5:04 PM CST
Civil Twilight 6:32 AM CST 5:34 PM CST
Nautical Twilight 5:58 AM CST 6:08 PM CST
Astronomical Twilight 5:24 AM CST 6:42 PM CST
Moon 5:13 PM CST (11/6) 6:34 AM CST (11/6)
Length of Visible Light 11h 01m
Length of Day
10h 00m
Full, 100% of the Moon is Illuminated
Nov 6
Full
Nov 6
Full
Nov 14
Last Quarter
Nov 22
New
Nov 29
First Quarter

Hourly Weather History & Observations

Time (CST) Temp. Windchill Dew Point Humidity Pressure Visibility Wind Dir Wind Speed Gust Speed Precip Events Conditions
12:13 AM 35.6 °F 23.7 °F 32.0 °F 87% 30.08 in 10.0 mi NNW 24.2 mph 35.7 mph N/A   Overcast
12:33 AM 35.6 °F 24.0 °F 32.0 °F 87% 30.10 in 10.0 mi NNW 23.0 mph 29.9 mph N/A Snow Light Snow
12:54 AM 35.6 °F 24.5 °F 32.0 °F 87% 30.12 in 10.0 mi NNW 20.7 mph 29.9 mph N/A Snow Light Snow
1:13 AM 35.6 °F 23.4 °F 32.0 °F 87% 30.12 in 5.0 mi NNW 25.3 mph 31.1 mph N/A Snow Light Snow
1:33 AM 33.8 °F 22.5 °F 32.0 °F 93% 30.13 in 5.0 mi NNW 19.6 mph 24.2 mph N/A Snow Light Snow
1:54 AM 35.6 °F 24.2 °F 33.8 °F 93% 30.14 in 10.0 mi NNW 21.9 mph 26.5 mph N/A Rain Light Rain
2:13 AM 33.8 °F 22.2 °F 32.0 °F 93% 30.14 in 10.0 mi NNW 20.7 mph 24.2 mph N/A   Overcast
2:33 AM 35.6 °F 24.8 °F 32.0 °F 87% 30.15 in 10.0 mi NNW 19.6 mph 24.2 mph N/A   Light Drizzle
2:54 AM 35.6 °F 24.2 °F 32.0 °F 87% 30.17 in 10.0 mi NW 21.9 mph 27.6 mph N/A   Overcast
3:13 AM 33.8 °F 21.9 °F 30.2 °F 87% 30.18 in 10.0 mi NW 21.9 mph 27.6 mph N/A   Overcast
3:33 AM 33.8 °F 21.6 °F 30.2 °F 87% 30.20 in 10.0 mi NW 23.0 mph 29.9 mph N/A   Overcast
3:54 AM 33.8 °F 21.6 °F 30.2 °F 87% 30.20 in 10.0 mi NW 23.0 mph 28.8 mph N/A   Overcast
4:13 AM 32.0 °F 18.9 °F 28.4 °F 87% 30.21 in 10.0 mi NW 24.2 mph 31.1 mph N/A   Mostly Cloudy
4:33 AM 32.0 °F 19.2 °F 28.4 °F 87% 30.21 in 10.0 mi NW 23.0 mph 26.5 mph N/A   Scattered Clouds
4:53 AM 30.2 °F 18.5 °F 28.4 °F 93% 30.22 in 10.0 mi NW 17.3 mph 25.3 mph N/A   Scattered Clouds
5:13 AM 30.2 °F 18.5 °F 28.4 °F 93% 30.24 in 10.0 mi NW 17.3 mph - N/A   Clear
5:34 AM 30.2 °F 18.9 °F 28.4 °F 93% 30.24 in 10.0 mi NW 16.1 mph - N/A   Scattered Clouds
5:53 AM 30.2 °F 19.3 °F 28.4 °F 93% 30.25 in 10.0 mi NW 15.0 mph - N/A   Clear
6:13 AM 30.2 °F 18.9 °F 28.4 °F 93% 30.25 in 10.0 mi NW 16.1 mph - N/A   Clear
6:34 AM 30.2 °F 19.8 °F 28.4 °F 93% 30.26 in 10.0 mi NW 13.8 mph - N/A   Clear
6:53 AM 30.2 °F 19.3 °F 28.4 °F 93% 30.26 in 10.0 mi NW 15.0 mph - N/A   Clear
7:13 AM 30.2 °F 19.3 °F 28.4 °F 93% 30.27 in 10.0 mi NW 15.0 mph - N/A   Clear
7:34 AM 30.2 °F 19.8 °F 28.4 °F 93% 30.28 in 10.0 mi WNW 13.8 mph - N/A   Clear
7:53 AM 30.2 °F 20.2 °F 28.4 °F 93% 30.29 in 10.0 mi NW 12.7 mph - N/A   Clear
8:13 AM 32.0 °F 21.6 °F 28.4 °F 87% 30.30 in 10.0 mi WNW 15.0 mph 19.6 mph N/A   Clear
8:53 AM 33.8 °F 23.9 °F 30.2 °F 87% 30.31 in 10.0 mi NW 15.0 mph 21.9 mph N/A   Mostly Cloudy
9:13 AM 33.8 °F 21.9 °F 30.2 °F 87% 30.31 in 10.0 mi NW 21.9 mph 25.3 mph N/A   Overcast
9:33 AM 35.6 °F 26.2 °F 30.2 °F 81% 30.32 in 10.0 mi NW 15.0 mph - N/A   Mostly Cloudy
9:53 AM 35.6 °F 25.9 °F 30.2 °F 81% 30.33 in 10.0 mi NW 16.1 mph - N/A   Mostly Cloudy
10:14 AM 35.6 °F 25.5 °F 30.2 °F 81% 30.33 in 10.0 mi NW 17.3 mph 21.9 mph N/A   Overcast
10:33 AM 35.6 °F 26.2 °F 30.2 °F 81% 30.33 in 10.0 mi WNW 15.0 mph 20.7 mph N/A   Overcast
10:53 AM 37.4 °F 28.2 °F 30.2 °F 75% 30.34 in 10.0 mi NW 16.1 mph 19.6 mph N/A   Overcast
11:14 AM 37.4 °F 28.5 °F 30.2 °F 75% 30.34 in 10.0 mi WNW 15.0 mph 19.6 mph N/A   Overcast
11:33 AM 37.4 °F 27.8 °F 30.2 °F 75% 30.34 in 10.0 mi NW 17.3 mph 21.9 mph N/A   Overcast
11:53 AM 37.4 °F 28.2 °F 30.2 °F 75% 30.34 in 10.0 mi WNW 16.1 mph 23.0 mph N/A   Overcast
12:13 PM 39.2 °F 30.5 °F 30.2 °F 70% 30.33 in 10.0 mi NW 16.1 mph 23.0 mph N/A   Overcast
12:33 PM 42.8 °F 34.8 °F 30.2 °F 61% 30.32 in 10.0 mi NW 17.3 mph - N/A   Mostly Cloudy
12:53 PM 42.8 °F 36.2 °F 30.2 °F 61% 30.32 in 10.0 mi NW 12.7 mph - N/A   Scattered Clouds
1:13 PM 42.8 °F 35.8 °F 30.2 °F 61% 30.31 in 10.0 mi NNW 13.8 mph - N/A   Mostly Cloudy
1:33 PM 42.8 °F 35.8 °F 30.2 °F 61% 30.31 in 10.0 mi NNW 13.8 mph 18.4 mph N/A   Overcast
1:53 PM 42.8 °F 37.0 °F 30.2 °F 61% 30.30 in 10.0 mi NW 10.4 mph - N/A   Scattered Clouds
2:13 PM 42.8 °F 36.6 °F 30.2 °F 61% 30.30 in 10.0 mi WNW 11.5 mph 16.1 mph N/A   Scattered Clouds
2:33 PM 44.6 °F 38.8 °F 30.2 °F 57% 30.30 in 10.0 mi NNW 11.5 mph 19.6 mph N/A   Overcast
2:53 PM 44.6 °F 38.4 °F 30.2 °F 57% 30.30 in 10.0 mi NNW 12.7 mph 17.3 mph N/A   Overcast
3:14 PM 42.8 °F 37.0 °F 30.2 °F 61% 30.29 in 10.0 mi NW 10.4 mph 16.1 mph N/A   Overcast
3:33 PM 42.8 °F 36.2 °F 30.2 °F 61% 30.29 in 10.0 mi NNW 12.7 mph - N/A   Overcast
3:53 PM 42.8 °F 37.0 °F 30.2 °F 61% 30.29 in 10.0 mi NNW 10.4 mph - N/A   Overcast
4:14 PM 41.0 °F 35.8 °F 30.2 °F 65% 30.29 in 10.0 mi North 8.1 mph - N/A   Mostly Cloudy
4:33 PM 39.2 °F 34.2 °F 30.2 °F 70% 30.28 in 10.0 mi North 6.9 mph - N/A   Scattered Clouds
4:53 PM 37.4 °F - 30.2 °F 75% 30.28 in 10.0 mi Calm Calm - N/A   Clear
5:13 PM 35.6 °F - 30.2 °F 81% 30.27 in 10.0 mi Calm Calm - N/A   Clear
5:33 PM 33.8 °F - 28.4 °F 81% 30.27 in 10.0 mi Calm Calm - N/A   Clear
5:54 PM 33.8 °F - 26.6 °F 75% 30.27 in 10.0 mi Calm Calm - N/A   Clear
6:13 PM 32.0 °F - 28.4 °F 87% 30.28 in 10.0 mi Calm Calm - N/A   Clear
6:33 PM 32.0 °F - 28.4 °F 87% 30.26 in 10.0 mi Calm Calm - N/A   Clear
6:54 PM 30.2 °F - 26.6 °F 86% 30.26 in 7.0 mi Calm Calm - N/A   Clear
7:33 PM 30.2 °F - 26.6 °F 86% 30.26 in 10.0 mi Calm Calm - N/A   Clear
7:54 PM 30.2 °F - 28.4 °F 93% 30.25 in 10.0 mi Calm Calm - N/A   Clear
8:13 PM 30.2 °F - 26.6 °F 86% 30.24 in 10.0 mi Calm Calm - N/A   Clear
8:33 PM 30.2 °F - 28.4 °F 93% 30.24 in 10.0 mi Calm Calm - N/A   Clear
8:54 PM 28.4 °F - 26.6 °F 93% 30.23 in 10.0 mi Calm Calm - N/A   Clear
9:13 PM 30.2 °F - 26.6 °F 86% 30.23 in 10.0 mi Calm Calm - N/A   Clear
9:34 PM 30.2 °F - 28.4 °F 93% 30.23 in 10.0 mi Calm Calm - N/A   Clear
9:53 PM 28.4 °F - 26.6 °F 93% 30.22 in 10.0 mi Calm Calm - N/A   Clear
10:13 PM 28.4 °F - 26.6 °F 93% 30.22 in 10.0 mi Calm Calm - N/A   Clear
10:34 PM 28.4 °F - 26.6 °F 93% 30.20 in 10.0 mi Calm Calm - N/A   Clear
10:53 PM 28.4 °F 23.3 °F 26.6 °F 93% 30.20 in 10.0 mi SSE 4.6 mph - N/A   Clear
11:13 PM 30.2 °F 24.3 °F 28.4 °F 93% 30.19 in 10.0 mi SSE 5.8 mph - N/A   Clear
11:34 PM 30.2 °F - 28.4 °F 93% 30.20 in 10.0 mi Calm Calm - N/A   Clear
11:53 PM 30.2 °F 26.7 °F 28.4 °F 93% 30.20 in 10.0 mi SSE 3.5 mph - N/A   Clear